When you browse on this site, cookies collect data to enhance your experience and personalize the content and advertising you see.
Visit our Privacy Policy to learn more. By continuing to use the site, you agree to this use of cookies and data.
  • In Norway
  • List of Countries
  • For 7 days
  • Water Temperature
  • Satellite Maps
  • Weather Map
  • Weather Widgets
  • user-avatar
    Login

    Hourly Weather Kaprun

    Today, 25 March, Monday

    Time Temperature Precipitation Wind Pressure Humidity
    00:00 +1°C° 0.1 mm 1 mps 596 mmHg 98%
    01:00 0°C° 0 mm 1 mps 596 mmHg 98%
    02:00 0°C° 0 mm 1 mps 595 mmHg 98%
    03:00 0°C° 0 mm 1 mps 595 mmHg 98%
    04:00 -1°C° 0 mm 1 mps 594 mmHg 98%
    05:00 0°C° 0.1 mm 1 mps 594 mmHg 98%
    06:00 -2°C° 0.1 mm 2 mps 594 mmHg 98%
    07:00 -2°C° 0 mm 2 mps 594 mmHg 98%
    08:00 -2°C° 0.1 mm 2 mps 594 mmHg 97%
    09:00 -2°C° 0.1 mm 2 mps 594 mmHg 96%
    10:00 -2°C° 0.1 mm 3 mps 594 mmHg 94%
    11:00 -2°C° 0.3 mm 3 mps 593 mmHg 94%
    12:00 -2°C° 0.3 mm 3 mps 593 mmHg 94%
    13:00 -4°C° 0 mm 3 mps 592 mmHg 93%
    14:00 -5°C° 0.4 mm 4 mps 592 mmHg 93%
    15:00 -5°C° 0.4 mm 4 mps 592 mmHg 93%
    16:00 -7°C° 0.4 mm 4 mps 591 mmHg 93%
    17:00 -8°C° 0.6 mm 4 mps 591 mmHg 94%
    18:00 -9°C° 0.6 mm 4 mps 591 mmHg 94%
    19:00 -10°C° 0.6 mm 4 mps 591 mmHg 95%
    20:00 -10°C° 0.2 mm 4 mps 592 mmHg 95%
    21:00 -11°C° 0.2 mm 4 mps 592 mmHg 95%
    22:00 -11°C° 0.2 mm 4 mps 593 mmHg 95%
    23:00 -11°C° 0.3 mm 4 mps 593 mmHg 95%

    Tomorrow, 26 March, Tuesday

    Time Temperature Precipitation Wind Pressure Humidity
    00:00 -12°C° 0.3 mm 4 mps 593 mmHg 95%
    01:00 -12°C° 0.3 mm 4 mps 594 mmHg 95%
    02:00 -12°C° 0.2 mm 4 mps 594 mmHg 95%
    03:00 -12°C° 0.2 mm 4 mps 594 mmHg 95%
    04:00 -12°C° 0.2 mm 3 mps 595 mmHg 95%
    05:00 -13°C° 0.1 mm 3 mps 595 mmHg 95%
    06:00 -13°C° 0.1 mm 3 mps 595 mmHg 94%
    07:00 -13°C° 0.1 mm 3 mps 595 mmHg 94%
    08:00 -12°C° 0 mm 3 mps 596 mmHg 89%
    09:00 -9°C° 0 mm 3 mps 596 mmHg 85%
    10:00 -8°C° 0 mm 3 mps 597 mmHg 80%
    11:00 -8°C° 0 mm 3 mps 597 mmHg 79%
    12:00 -7°C° 0 mm 3 mps 598 mmHg 78%
    13:00 -6°C° 0 mm 3 mps 598 mmHg 77%
    14:00 -6°C° 0 mm 3 mps 598 mmHg 78%
    15:00 -6°C° 0 mm 3 mps 597 mmHg 79%
    16:00 -6°C° 0 mm 3 mps 597 mmHg 80%
    17:00 -8°C° 0 mm 3 mps 597 mmHg 85%
    18:00 -8°C° 0 mm 2 mps 597 mmHg 90%
    19:00 -10°C° 0 mm 2 mps 596 mmHg 95%
    20:00 -10°C° 0 mm 2 mps 597 mmHg 95%
    21:00 -10°C° 0 mm 2 mps 597 mmHg 95%
    22:00 -12°C° 0 mm 2 mps 597 mmHg 96%
    23:00 -12°C° 0 mm 2 mps 597 mmHg 95%

    Day after tomorrow, 27 March, Wednesday

    Time Temperature Precipitation Wind Pressure Humidity
    00:00 -13°C° 0 mm 2 mps 597 mmHg 95%
    01:00 -11°C° 0 mm 1 mps 597 mmHg 94%
    02:00 -11°C° 0 mm 1 mps 597 mmHg 93%
    03:00 -13°C° 0 mm 2 mps 597 mmHg 92%
    04:00 -13°C° 0 mm 2 mps 597 mmHg 91%
    05:00 -10°C° 0 mm 1 mps 597 mmHg 90%
    06:00 -9°C° 0 mm 1 mps 598 mmHg 88%
    07:00 -9°C° 0 mm 1 mps 598 mmHg 86%
    08:00 -8°C° 0.1 mm 2 mps 599 mmHg 85%
    09:00 -7°C° 0.1 mm 2 mps 600 mmHg 84%
    10:00 -5°C° 0.1 mm 2 mps 600 mmHg 83%
    11:00 -5°C° 0.1 mm 2 mps 600 mmHg 83%
    12:00 -4°C° 0.1 mm 2 mps 600 mmHg 83%
    13:00 -5°C° 0.1 mm 3 mps 601 mmHg 83%
    14:00 -4°C° 0.1 mm 2 mps 600 mmHg 84%
    15:00 -4°C° 0.1 mm 2 mps 600 mmHg 85%
    16:00 -4°C° 0.1 mm 2 mps 600 mmHg 87%
    17:00 -5°C° 0 mm 2 mps 600 mmHg 90%
    18:00 -6°C° 0 mm 2 mps 600 mmHg 93%
    19:00 -6°C° 0 mm 2 mps 600 mmHg 95%
    20:00 -7°C° 0 mm 2 mps 600 mmHg 96%
    21:00 -6°C° 0 mm 1 mps 600 mmHg 96%
    22:00 -7°C° 0 mm 1 mps 601 mmHg 97%
    23:00 -7°C° 0 mm 1 mps 600 mmHg 96%

    28 March, Thursday

    Time Temperature Precipitation Wind Pressure Humidity
    00:00 -8°C° 0 mm 1 mps 600 mmHg 95%
    01:00 -8°C° 0 mm 1 mps 600 mmHg 95%
    02:00 -8°C° 0 mm 1 mps 600 mmHg 93%
    03:00 -9°C° 0 mm 1 mps 600 mmHg 92%
    04:00 -9°C° 0 mm 1 mps 599 mmHg 91%
    05:00 -9°C° 0 mm 1 mps 600 mmHg 89%
    06:00 -8°C° 0 mm 1 mps 600 mmHg 87%
    07:00 -7°C° 0 mm 1 mps 600 mmHg 86%
    08:00 -6°C° 0 mm 2 mps 601 mmHg 84%
    09:00 -4°C° 0 mm 2 mps 602 mmHg 83%
    10:00 -2°C° 0 mm 2 mps 603 mmHg 81%
    11:00 -2°C° 0.1 mm 2 mps 603 mmHg 83%
    12:00 -1°C° 0.1 mm 2 mps 603 mmHg 85%
    13:00 -1°C° 0.1 mm 3 mps 603 mmHg 86%
    14:00 -1°C° 0.1 mm 3 mps 603 mmHg 87%
    15:00 -1°C° 0.1 mm 3 mps 602 mmHg 88%
    16:00 -1°C° 0.1 mm 3 mps 602 mmHg 89%
    17:00 -2°C° 0.1 mm 2 mps 602 mmHg 92%
    18:00 -3°C° 0.1 mm 2 mps 602 mmHg 95%
    19:00 -4°C° 0.1 mm 2 mps 602 mmHg 97%
    20:00 -3°C° 0 mm 1 mps 602 mmHg 97%
    21:00 -3°C° 0 mm 1 mps 602 mmHg 97%
    22:00 -3°C° 0 mm 1 mps 603 mmHg 97%
    23:00 -4°C° 0 mm 1 mps 602 mmHg 97%

    29 March, Friday

    Time Temperature Precipitation Wind Pressure Humidity
    00:00 -4°C° 0 mm 1 mps 602 mmHg 96%
    01:00 -6°C° 0 mm 1 mps 602 mmHg 96%
    02:00 -6°C° 0 mm 1 mps 602 mmHg 95%
    03:00 -7°C° 0 mm 1 mps 602 mmHg 94%
    04:00 -7°C° 0 mm 1 mps 601 mmHg 93%
    05:00 -7°C° 0 mm 1 mps 602 mmHg 91%
    06:00 -7°C° 0 mm 1 mps 602 mmHg 89%
    07:00 -6°C° 0 mm 1 mps 602 mmHg 87%
    08:00 -3°C° 0 mm 1 mps 603 mmHg 80%
    09:00 -1°C° 0 mm 1 mps 604 mmHg 73%
    10:00 +2°C° 0 mm 1 mps 605 mmHg 66%
    11:00 +3°C° 0 mm 1 mps 605 mmHg 66%
    12:00 +3°C° 0 mm 1 mps 605 mmHg 66%
    13:00 +4°C° 0 mm 1 mps 605 mmHg 66%
    14:00 +4°C° 0 mm 1 mps 604 mmHg 68%
    15:00 +4°C° 0 mm 1 mps 604 mmHg 69%
    16:00 +4°C° 0 mm 1 mps 604 mmHg 70%
    17:00 +2°C° 0 mm 1 mps 603 mmHg 73%
    18:00 0°C° 0 mm 1 mps 602 mmHg 76%
    19:00 -2°C° 0 mm 1 mps 601 mmHg 79%
    20:00 -4°C° 0 mm 2 mps 601 mmHg 76%
    21:00 -5°C° 0 mm 2 mps 602 mmHg 72%
    22:00 -5°C° 0 mm 2 mps 602 mmHg 69%
    23:00 -5°C° 0 mm 2 mps 602 mmHg 67%

    30 March, Saturday

    Time Temperature Precipitation Wind Pressure Humidity
    00:00 -5°C° 0 mm 2 mps 601 mmHg 65%
    01:00 -5°C° 0 mm 2 mps 601 mmHg 63%
    02:00 -5°C° 0 mm 2 mps 601 mmHg 60%
    03:00 -6°C° 0 mm 2 mps 601 mmHg 57%
    04:00 -6°C° 0 mm 2 mps 601 mmHg 53%
    05:00 -5°C° 0 mm 2 mps 601 mmHg 50%
    06:00 -5°C° 0 mm 2 mps 601 mmHg 46%
    07:00 -4°C° 0 mm 2 mps 601 mmHg 42%
    08:00 -1°C° 0 mm 2 mps 602 mmHg 44%
    09:00 +3°C° 0 mm 1 mps 603 mmHg 46%
    10:00 +6°C° 0 mm 1 mps 604 mmHg 48%
    11:00 +7°C° 0 mm 1 mps 603 mmHg 48%
    12:00 +8°C° 0 mm 1 mps 603 mmHg 48%
    13:00 +8°C° 0 mm 1 mps 603 mmHg 48%
    14:00 +8°C° 0 mm 1 mps 603 mmHg 50%
    15:00 +8°C° 0 mm 1 mps 602 mmHg 52%
    16:00 +7°C° 0 mm 1 mps 601 mmHg 54%
    17:00 +5°C° 0 mm 1 mps 600 mmHg 60%
    18:00 +2°C° 0 mm 2 mps 599 mmHg 66%
    19:00 -2°C° 0 mm 2 mps 598 mmHg 72%
    20:00 -2°C° 0 mm 2 mps 598 mmHg 73%
    21:00 -3°C° 0 mm 2 mps 598 mmHg 75%
    22:00 -3°C° 0 mm 2 mps 598 mmHg 76%
    23:00 -4°C° 0 mm 2 mps 598 mmHg 76%
    Show more